DW0920 Weather Reports


time (UTC)temp
F
wind
direction
speed
knots
gust
knots
rain 1hr
in
rain 24hr
in
rain mn
in
humidity
%
barometer
mb
20260901221833 67 216 0.0 0.0 0.00 0.00 0.00 79 1019.1
20260901220837 68 216 0.0 0.0 0.00 0.00 0.00 79 1018.8
20260901215852 68 216 0.0 0.0 0.00 0.00 0.00 76 1018.9
20260901214856 69 216 0.0 0.0 0.00 0.00 0.00 74 1018.8
20260901213901 69 216 0.0 0.0 0.00 0.00 0.00 72 1018.7
20260901212852 70 216 0.0 0.0 0.00 0.00 0.00 72 1018.6
20260901211856 70 205 0.0 0.0 0.00 0.00 0.00 71 1018.6
20260901210911 70 242 0.0 0.0 0.00 0.00 0.00 72 1018.5
20260901205927 70 200 0.0 0.0 0.00 0.00 0.00 72 1018.4
20260901204858 70 211 0.0 0.0 0.00 0.00 0.00 72 1018.3
20260901203832 71 217 0.0 0.0 0.00 0.00 0.00 74 1018.3
20260901202829 71 196 0.0 0.0 0.00 0.00 0.00 71 1018.4
20260901201846 72 213 0.0 0.0 0.00 0.00 0.00 69 1018.4
20260901200837 73 156 0.0 0.0 0.00 0.00 0.00 67 1018.4
20260901195847 73 256 0.0 0.0 0.00 0.00 0.00 69 1018.2
20260901194909 72 199 0.0 0.0 0.00 0.00 0.00 69 1018.2
20260901193905 72 230 0.0 0.0 0.00 0.00 0.00 68 1018.3
20260901192902 73 213 0.0 0.0 0.00 0.00 0.00 66 1018.2
20260901191841 73 270 0.0 0.0 0.00 0.00 0.00 65 1018.2
20260901190837 72 258 0.0 0.0 0.00 0.00 0.00 67 1018.1
20260901185814 72 234 0.0 0.0 0.00 0.00 0.00 66 1018.2